Time,TemperatureF,DewpointF,PressureIn,WindDirection,WindDirectionDegrees,WindSpeedMPH,WindSpeedGustMPH,Humidity,HourlyPrecipIn,Conditions,Clouds,dailyrainin,SoftwareType,DateUTC
2013-04-01 13:31:00,34.4,30.4,29.91,North,355,1.0,1.0,85,0.00,,,0.00,Wunderground v.1.13,2013-04-01 17:31:00,
2013-04-01 13:37:00,34.9,31.1,29.91,West,272,2.0,2.0,86,0.00,,,0.00,Wunderground v.1.13,2013-04-01 17:37:00,
2013-04-01 13:43:00,35.1,31.3,29.91,WNW,286,2.0,5.0,86,0.00,,,0.00,Wunderground v.1.13,2013-04-01 17:43:00,
2013-04-01 13:49:00,35.3,31.2,29.91,WNW,286,1.0,2.0,85,0.00,,,0.00,Wunderground v.1.13,2013-04-01 17:49:00,
2013-04-01 13:54:00,35.4,31.0,29.91,WNW,286,0.0,1.0,84,0.00,,,0.00,Wunderground v.1.13,2013-04-01 17:54:00,
2013-04-01 13:59:00,35.4,31.0,29.91,WNW,283,0.0,3.0,84,0.00,,,0.00,Wunderground v.1.13,2013-04-01 17:59:00,
2013-04-01 14:05:00,35.4,31.0,29.91,West,280,1.0,4.0,84,0.00,,,0.00,Wunderground v.1.13,2013-04-01 18:05:00,
2013-04-01 14:10:00,35.7,31.3,29.91,West,279,1.0,1.0,84,0.00,,,0.00,Wunderground v.1.13,2013-04-01 18:10:00,
2013-04-01 14:16:00,35.8,31.4,29.91,West,279,1.0,3.0,84,0.00,,,0.00,Wunderground v.1.13,2013-04-01 18:16:00,
2013-04-01 14:21:00,36.2,31.8,29.91,West,279,0.0,1.0,84,0.00,,,0.00,Wunderground v.1.13,2013-04-01 18:21:00,
2013-04-01 14:26:00,36.5,31.8,29.91,West,279,0.0,1.0,83,0.00,,,0.00,Wunderground v.1.13,2013-04-01 18:26:00,
2013-04-01 14:31:00,36.8,32.1,29.91,West,279,0.0,2.0,83,0.00,,,0.00,Wunderground v.1.13,2013-04-01 18:31:00,
2013-04-01 14:36:00,37.2,31.6,29.91,West,279,1.0,2.0,80,0.00,,,0.00,Wunderground v.1.13,2013-04-01 18:36:00,
2013-04-01 14:41:00,38.1,32.2,29.90,West,279,2.0,3.0,79,0.00,,,0.00,Wunderground v.1.13,2013-04-01 18:41:00,
2013-04-01 14:46:00,39.6,33.3,29.90,WSW,242,2.0,2.0,78,0.00,,,0.00,Wunderground v.1.13,2013-04-01 18:46:00,
2013-04-01 14:51:00,39.6,31.7,29.90,NW,326,2.0,8.0,73,0.00,,,0.00,Wunderground v.1.13,2013-04-01 18:51:00,
2013-04-01 14:56:00,39.5,31.6,29.91,NW,322,3.0,6.0,73,0.00,,,0.00,Wunderground v.1.13,2013-04-01 18:56:00,
2013-04-01 15:02:00,38.8,29.8,29.91,NNW,346,0.0,8.0,70,0.00,,,0.00,Wunderground v.1.13,2013-04-01 19:02:00,
2013-04-01 15:07:00,38.6,30.0,29.91,WNW,284,1.0,4.0,71,0.00,,,0.00,Wunderground v.1.13,2013-04-01 19:07:00,
2013-04-01 15:12:00,39.8,31.2,29.90,West,273,0.0,5.0,71,0.00,,,0.00,Wunderground v.1.13,2013-04-01 19:12:00,
2013-04-01 15:17:00,40.7,30.6,29.90,West,277,2.0,6.0,67,0.00,,,0.00,Wunderground v.1.13,2013-04-01 19:17:00,
2013-04-01 15:22:00,41.6,29.9,29.90,SW,236,3.0,7.0,63,0.00,,,0.00,Wunderground v.1.13,2013-04-01 19:22:00,
2013-04-01 15:28:00,41.9,29.0,29.90,SSW,213,0.0,11.0,60,0.00,,,0.00,Wunderground v.1.13,2013-04-01 19:28:00,
2013-04-01 15:33:00,40.9,28.5,29.90,SW,219,0.0,11.0,61,0.00,,,0.00,Wunderground v.1.13,2013-04-01 19:33:00,
2013-04-01 15:38:00,40.4,27.6,29.90,SW,229,1.0,8.0,60,0.00,,,0.00,Wunderground v.1.13,2013-04-01 19:38:00,
2013-04-01 15:43:00,40.5,28.5,29.90,NW,319,2.0,8.0,62,0.00,,,0.00,Wunderground v.1.13,2013-04-01 19:43:00,
2013-04-01 15:48:00,41.4,28.1,29.90,WNW,289,4.0,10.0,59,0.00,,,0.00,Wunderground v.1.13,2013-04-01 19:48:00,
2013-04-01 15:53:00,41.0,26.5,29.90,SSW,205,4.0,10.0,56,0.00,,,0.00,Wunderground v.1.13,2013-04-01 19:53:00,
2013-04-01 15:58:00,42.2,28.0,29.90,NNW,329,5.0,6.0,57,0.00,,,0.00,Wunderground v.1.13,2013-04-01 19:58:00,
2013-04-01 16:03:00,42.2,26.7,29.90,NW,314,2.0,6.0,54,0.00,,,0.00,Wunderground v.1.13,2013-04-01 20:03:00,
2013-04-01 16:08:00,41.8,27.7,29.90,WNW,293,1.0,7.0,57,0.00,,,0.00,Wunderground v.1.13,2013-04-01 20:08:00,
2013-04-01 16:13:00,41.0,26.1,29.91,West,263,2.0,5.0,55,0.00,,,0.00,Wunderground v.1.13,2013-04-01 20:13:00,
2013-04-01 16:18:00,41.6,26.6,29.91,NNW,348,0.0,7.0,55,0.00,,,0.00,Wunderground v.1.13,2013-04-01 20:18:00,
2013-04-01 16:23:00,42.0,26.5,29.91,SW,222,1.0,4.0,54,0.00,,,0.00,Wunderground v.1.13,2013-04-01 20:23:00,
2013-04-01 16:28:00,42.6,25.2,29.91,West,274,4.0,11.0,50,0.00,,,0.00,Wunderground v.1.13,2013-04-01 20:28:00,
2013-04-01 16:33:00,42.7,24.8,29.90,West,270,4.0,11.0,49,0.00,,,0.00,Wunderground v.1.13,2013-04-01 20:33:00,
2013-04-01 16:38:00,42.5,24.2,29.91,West,273,0.0,6.0,48,0.00,,,0.00,Wunderground v.1.13,2013-04-01 20:38:00,
2013-04-01 16:43:00,43.1,24.2,29.91,SSW,208,7.0,9.0,47,0.00,,,0.00,Wunderground v.1.13,2013-04-01 20:43:00,
2013-04-01 16:48:00,43.5,24.6,29.91,WSW,244,2.0,8.0,47,0.00,,,0.00,Wunderground v.1.13,2013-04-01 20:48:00,
2013-04-01 16:53:00,43.1,23.2,29.91,WSW,238,0.0,5.0,45,0.00,,,0.00,Wunderground v.1.13,2013-04-01 20:53:00,
2013-04-01 16:58:00,42.3,25.0,29.91,WNW,299,5.0,8.0,50,0.00,,,0.00,Wunderground v.1.13,2013-04-01 20:58:00,
2013-04-01 17:03:00,42.3,23.0,29.90,NW,320,0.0,13.0,46,0.00,,,0.00,Wunderground v.1.13,2013-04-01 21:03:00,
2013-04-01 17:08:00,41.9,23.6,29.91,WSW,255,5.0,21.0,48,0.00,,,0.00,Wunderground v.1.13,2013-04-01 21:08:00,
2013-04-01 17:13:00,42.3,21.9,29.90,NNW,330,1.0,10.0,44,0.00,,,0.00,Wunderground v.1.13,2013-04-01 21:13:00,
2013-04-01 17:18:00,41.5,21.2,29.91,North,10,0.0,6.0,44,0.00,,,0.00,Wunderground v.1.13,2013-04-01 21:18:00,
2013-04-01 17:23:00,41.6,21.8,29.91,West,266,0.0,4.0,45,0.00,,,0.00,Wunderground v.1.13,2013-04-01 21:23:00,
2013-04-01 17:28:00,41.7,22.4,29.91,NW,310,4.0,9.0,46,0.00,,,0.00,Wunderground v.1.13,2013-04-01 21:28:00,
2013-04-01 17:33:00,41.2,21.4,29.91,West,269,6.0,6.0,45,0.00,,,0.00,Wunderground v.1.13,2013-04-01 21:33:00,
2013-04-01 17:38:00,42.0,22.2,29.92,NW,326,2.0,8.0,45,0.00,,,0.00,Wunderground v.1.13,2013-04-01 21:38:00,
2013-04-01 17:43:00,41.9,20.4,29.92,WSW,248,1.0,5.0,42,0.00,,,0.00,Wunderground v.1.13,2013-04-01 21:43:00,
2013-04-01 17:48:00,41.3,20.5,29.92,WSW,254,1.0,9.0,43,0.00,,,0.00,Wunderground v.1.13,2013-04-01 21:48:00,
2013-04-01 17:53:00,41.0,20.7,29.92,NW,308,2.0,10.0,44,0.00,,,0.00,Wunderground v.1.13,2013-04-01 21:53:00,
2013-04-01 17:58:00,41.1,19.7,29.92,North,5,0.0,12.0,42,0.00,,,0.00,Wunderground v.1.13,2013-04-01 21:58:00,
2013-04-01 18:03:00,40.8,19.5,29.92,WNW,292,1.0,13.0,42,0.00,,,0.00,Wunderground v.1.13,2013-04-01 22:03:00,
2013-04-01 18:08:00,40.5,20.3,29.93,WNW,294,0.0,10.0,44,0.00,,,0.00,Wunderground v.1.13,2013-04-01 22:08:00,
2013-04-01 18:13:00,40.3,20.1,29.93,West,278,0.0,3.0,44,0.00,,,0.00,Wunderground v.1.13,2013-04-01 22:13:00,
2013-04-01 18:18:00,40.1,19.4,29.93,West,277,5.0,7.0,43,0.00,,,0.00,Wunderground v.1.13,2013-04-01 22:18:00,
2013-04-01 18:23:00,40.1,19.4,29.93,NNW,329,4.0,8.0,43,0.00,,,0.00,Wunderground v.1.13,2013-04-01 22:23:00,
2013-04-01 18:28:00,40.2,18.3,29.93,North,5,0.0,5.0,41,0.00,,,0.00,Wunderground v.1.13,2013-04-01 22:28:00,
2013-04-01 18:34:00,40.1,19.4,29.93,WNW,296,2.0,8.0,43,0.00,,,0.00,Wunderground v.1.13,2013-04-01 22:34:00,
2013-04-01 18:39:00,40.0,18.2,29.93,North,355,7.0,14.0,41,0.00,,,0.00,Wunderground v.1.13,2013-04-01 22:39:00,
2013-04-01 18:44:00,39.8,17.4,29.93,WNW,295,9.0,9.0,40,0.00,,,0.00,Wunderground v.1.13,2013-04-01 22:44:00,
2013-04-01 18:49:00,39.6,16.6,29.93,West,281,0.0,6.0,39,0.00,,,0.00,Wunderground v.1.13,2013-04-01 22:49:00,
2013-04-01 18:54:00,39.4,17.6,29.93,West,260,1.0,11.0,41,0.00,,,0.00,Wunderground v.1.13,2013-04-01 22:54:00,
2013-04-01 18:59:00,39.3,18.1,29.93,West,266,1.0,6.0,42,0.00,,,0.00,Wunderground v.1.13,2013-04-01 22:59:00,
2013-04-01 19:04:00,39.1,17.4,29.93,West,265,0.0,3.0,41,0.00,,,0.00,Wunderground v.1.13,2013-04-01 23:04:00,
2013-04-01 19:09:00,39.0,18.4,29.94,West,266,0.0,6.0,43,0.00,,,0.00,Wunderground v.1.13,2013-04-01 23:09:00,
2013-04-01 19:14:00,38.7,17.5,29.94,West,268,0.0,4.0,42,0.00,,,0.00,Wunderground v.1.13,2013-04-01 23:14:00,
2013-04-01 19:19:00,38.5,17.4,29.94,WNW,285,0.0,8.0,42,0.00,,,0.00,Wunderground v.1.13,2013-04-01 23:19:00,
2013-04-01 19:24:00,38.2,17.6,29.94,WNW,290,0.0,4.0,43,0.00,,,0.00,Wunderground v.1.13,2013-04-01 23:24:00,
2013-04-01 19:29:00,37.9,17.9,29.94,WSW,245,0.0,6.0,44,0.00,,,0.00,Wunderground v.1.13,2013-04-01 23:29:00,
2013-04-01 19:34:00,37.6,17.6,29.95,West,261,3.0,4.0,44,0.00,,,0.00,Wunderground v.1.13,2013-04-01 23:34:00,
2013-04-01 19:39:00,37.5,17.0,29.95,WNW,297,2.0,8.0,43,0.00,,,0.00,Wunderground v.1.13,2013-04-01 23:39:00,
2013-04-01 19:44:00,37.4,17.4,29.95,NW,319,2.0,5.0,44,0.00,,,0.00,Wunderground v.1.13,2013-04-01 23:44:00,
2013-04-01 19:49:00,37.2,16.7,29.95,SW,229,1.0,4.0,43,0.00,,,0.00,Wunderground v.1.13,2013-04-01 23:49:00,
2013-04-01 19:54:00,37.0,17.6,29.95,WSW,239,0.0,5.0,45,0.00,,,0.00,Wunderground v.1.13,2013-04-01 23:54:00,
2013-04-01 19:59:00,36.6,17.7,29.95,WSW,239,0.0,2.0,46,0.00,,,0.00,Wunderground v.1.13,2013-04-01 23:59:00,
2013-04-01 20:04:00,36.2,17.4,29.96,WSW,239,1.0,3.0,46,0.00,,,0.00,Wunderground v.1.13,2013-04-02 00:04:00,
2013-04-01 20:09:00,36.0,17.2,29.96,WSW,245,0.0,5.0,46,0.00,,,0.00,Wunderground v.1.13,2013-04-02 00:09:00,
2013-04-01 20:14:00,35.9,17.6,29.96,WSW,254,0.0,4.0,47,0.00,,,0.00,Wunderground v.1.13,2013-04-02 00:14:00,
2013-04-01 20:19:00,35.5,18.2,29.96,WSW,254,0.0,2.0,49,0.00,,,0.00,Wunderground v.1.13,2013-04-02 00:19:00,
2013-04-01 20:24:00,35.0,20.0,29.97,WSW,254,0.0,2.0,54,0.00,,,0.00,Wunderground v.1.13,2013-04-02 00:24:00,
2013-04-01 20:29:00,34.8,18.5,29.97,WSW,254,0.0,1.0,51,0.00,,,0.00,Wunderground v.1.13,2013-04-02 00:29:00,
2013-04-01 20:34:00,34.6,18.3,29.97,WSW,254,0.0,3.0,51,0.00,,,0.00,Wunderground v.1.13,2013-04-02 00:34:00,
2013-04-01 20:39:00,34.6,18.3,29.97,WSW,254,0.0,1.0,51,0.00,,,0.00,Wunderground v.1.13,2013-04-02 00:39:00,
2013-04-01 20:44:00,34.7,18.4,29.97,WSW,254,0.0,0.0,51,0.00,,,0.00,Wunderground v.1.13,2013-04-02 00:44:00,
2013-04-01 20:49:00,34.3,18.5,29.97,WSW,254,0.0,0.0,52,0.00,,,0.00,Wunderground v.1.13,2013-04-02 00:49:00,
2013-04-01 20:54:00,34.3,18.0,29.97,WSW,254,0.0,1.0,51,0.00,,,0.00,Wunderground v.1.13,2013-04-02 00:54:00,
2013-04-01 20:59:00,34.5,17.8,29.97,WSW,254,0.0,0.0,50,0.00,,,0.00,Wunderground v.1.13,2013-04-02 00:59:00,
2013-04-01 21:04:00,34.4,19.5,29.98,WSW,254,1.0,3.0,54,0.00,,,0.00,Wunderground v.1.13,2013-04-02 01:04:00,
2013-04-01 21:09:00,34.1,20.9,29.98,WSW,254,0.0,0.0,58,0.00,,,0.00,Wunderground v.1.13,2013-04-02 01:09:00,
2013-04-01 21:14:00,33.9,19.4,29.98,WSW,254,0.0,1.0,55,0.00,,,0.00,Wunderground v.1.13,2013-04-02 01:14:00,
2013-04-01 21:19:00,33.7,20.5,29.98,WSW,254,0.0,0.0,58,0.00,,,0.00,Wunderground v.1.13,2013-04-02 01:19:00,
2013-04-01 21:24:00,33.8,20.6,29.98,WSW,254,0.0,3.0,58,0.00,,,0.00,Wunderground v.1.13,2013-04-02 01:24:00,
2013-04-01 21:29:00,33.7,20.5,29.98,WSW,254,0.0,1.0,58,0.00,,,0.00,Wunderground v.1.13,2013-04-02 01:29:00,
2013-04-01 21:34:00,33.5,20.3,29.98,WSW,254,0.0,0.0,58,0.00,,,0.00,Wunderground v.1.13,2013-04-02 01:34:00,
2013-04-01 21:39:00,33.6,21.2,29.98,WSW,254,0.0,1.0,60,0.00,,,0.00,Wunderground v.1.13,2013-04-02 01:39:00,
2013-04-01 21:44:00,33.5,20.7,29.99,WSW,254,0.0,1.0,59,0.00,,,0.00,Wunderground v.1.13,2013-04-02 01:44:00,
2013-04-01 21:49:00,33.6,19.6,29.99,WSW,254,0.0,3.0,56,0.00,,,0.00,Wunderground v.1.13,2013-04-02 01:49:00,
2013-04-01 21:54:00,33.6,21.2,29.99,WSW,254,0.0,0.0,60,0.00,,,0.00,Wunderground v.1.13,2013-04-02 01:54:00,
2013-04-01 21:59:00,33.4,20.2,29.99,WSW,254,0.0,2.0,58,0.00,,,0.00,Wunderground v.1.13,2013-04-02 01:59:00,
2013-04-01 22:04:00,33.2,21.6,29.99,WSW,254,1.0,1.0,62,0.00,,,0.00,Wunderground v.1.13,2013-04-02 02:04:00,
2013-04-01 22:09:00,32.6,22.1,30.00,WSW,254,0.0,1.0,65,0.00,,,0.00,Wunderground v.1.13,2013-04-02 02:09:00,
2013-04-01 22:14:00,32.1,22.4,30.00,WSW,254,0.0,0.0,67,0.00,,,0.00,Wunderground v.1.13,2013-04-02 02:14:00,
2013-04-01 22:19:00,31.9,22.9,30.00,WSW,254,0.0,0.0,69,0.00,,,0.00,Wunderground v.1.13,2013-04-02 02:19:00,
2013-04-01 22:24:00,31.7,22.3,30.00,WSW,254,0.0,2.0,68,0.00,,,0.00,Wunderground v.1.13,2013-04-02 02:24:00,
2013-04-01 22:29:00,31.7,23.0,30.00,WSW,254,0.0,0.0,70,0.00,,,0.00,Wunderground v.1.13,2013-04-02 02:29:00,
2013-04-01 22:34:00,31.8,23.8,30.00,WSW,254,0.0,0.0,72,0.00,,,0.00,Wunderground v.1.13,2013-04-02 02:34:00,
2013-04-01 22:39:00,31.9,22.9,30.00,WSW,254,0.0,0.0,69,0.00,,,0.00,Wunderground v.1.13,2013-04-02 02:39:00,
2013-04-01 22:44:00,32.1,23.4,30.00,WSW,254,1.0,1.0,70,0.00,,,0.00,Wunderground v.1.13,2013-04-02 02:44:00,
2013-04-01 22:49:00,32.3,23.9,30.00,WSW,254,0.0,0.0,71,0.00,,,0.00,Wunderground v.1.13,2013-04-02 02:49:00,
2013-04-01 22:54:00,32.2,22.8,30.00,WSW,254,0.0,1.0,68,0.00,,,0.00,Wunderground v.1.13,2013-04-02 02:54:00,
2013-04-01 22:59:00,32.3,22.6,29.99,WSW,254,0.0,0.0,67,0.00,,,0.00,Wunderground v.1.13,2013-04-02 02:59:00,
2013-04-01 23:04:00,32.4,21.9,29.99,WSW,254,0.0,2.0,65,0.00,,,0.00,Wunderground v.1.13,2013-04-02 03:04:00,
2013-04-01 23:09:00,32.6,22.1,29.99,WSW,254,1.0,1.0,65,0.00,,,0.00,Wunderground v.1.13,2013-04-02 03:09:00,
2013-04-01 23:14:00,32.8,21.2,29.99,WSW,254,0.0,0.0,62,0.00,,,0.00,Wunderground v.1.13,2013-04-02 03:14:00,
2013-04-01 23:19:00,32.9,22.0,30.00,WSW,254,0.0,2.0,64,0.00,,,0.00,Wunderground v.1.13,2013-04-02 03:19:00,
2013-04-01 23:25:00,33.3,19.7,29.99,WSW,254,0.0,0.0,57,0.00,,,0.00,Wunderground v.1.13,2013-04-02 03:25:00,
2013-04-01 23:30:00,33.2,20.0,29.99,WSW,254,0.0,0.0,58,0.00,,,0.00,Wunderground v.1.13,2013-04-02 03:30:00,
2013-04-01 23:35:00,33.1,19.9,29.99,WSW,254,0.0,0.0,58,0.00,,,0.00,Wunderground v.1.13,2013-04-02 03:35:00,
2013-04-01 23:39:00,32.9,19.7,29.99,WSW,254,0.0,0.0,58,0.00,,,0.00,Wunderground v.1.13,2013-04-02 03:39:00,
2013-04-01 23:44:00,32.7,19.9,29.99,WSW,254,0.0,0.0,59,0.00,,,0.00,Wunderground v.1.13,2013-04-02 03:44:00,
2013-04-01 23:49:00,32.5,20.5,29.99,WSW,254,0.0,1.0,61,0.00,,,0.00,Wunderground v.1.13,2013-04-02 03:49:00,
2013-04-01 23:55:00,32.5,20.9,29.99,WSW,254,0.0,0.0,62,0.00,,,0.00,Wunderground v.1.13,2013-04-02 03:55:00,